Date String (YYYY-MM-DD hh:mm:ss) UTC,Instrument flags,Ambient pressure (hPa),Sample flow (lpm),Bypass flow (lpm),Sample temperature (°C),Ambient temperature (°C),ASC tube jacket temperature (°C),LED temperature (°C),Box temperature (°C),Sample RH (%),Span deviation,Mass concentration (μg/m³),Mass concentration (μg/m³),Mass concentration (μg/m³)
DateTimeUTC,F1_M11,P_M11,Q1_M11,Q2_M11,T1_M11,T2_M11,T3_M11,T4_M11,T5_M11,U1_M11,ZSPAN_M11,X2_M11,X0_M11,X1_M11
2022-01-31 21:00:00,,0812.5,5.00,0.00,24.4,23.7,00.0,33.4,26.3,04.9,0000.0,0000.43,0001.42,0000.27
2022-01-31 21:01:00,,0812.3,5.00,0.00,24.4,23.7,00.0,33.4,26.3,05.1,0000.0,0000.41,0001.37,0000.27
2022-01-31 21:02:00,,0812.6,5.00,0.00,24.4,23.7,00.0,33.4,26.3,05.2,0000.0,0000.39,0001.30,0000.28
2022-01-31 21:03:00,,0812.4,4.99,0.00,24.4,23.7,00.0,33.4,26.3,04.9,0000.0,0000.38,0001.29,0000.28
2022-01-31 21:04:00,,0812.4,5.00,0.00,24.4,23.7,00.0,33.4,26.3,04.9,0000.0,0000.37,0001.15,0000.28
2022-01-31 21:05:00,,0812.6,5.01,0.00,24.5,23.7,00.0,33.4,26.4,05.1,0000.0,0000.36,0000.83,0000.28
2022-01-31 21:06:00,,0812.6,4.99,0.00,24.5,23.7,00.0,33.4,26.4,04.7,0000.0,0000.35,0000.51,0000.29
2022-01-31 21:07:00,,0812.8,5.01,0.00,24.5,23.7,00.0,33.4,26.3,05.1,0000.0,0000.35,0000.51,0000.29
2022-01-31 21:08:00,,0812.5,4.98,0.00,24.5,23.7,00.0,33.4,26.4,05.4,0000.0,0000.36,0000.52,0000.30
2022-01-31 21:09:00,,0812.6,5.01,0.00,24.5,23.7,00.0,33.4,26.3,04.9,0000.0,0000.38,0000.81,0000.30
2022-01-31 21:10:00,,0812.6,4.98,0.00,24.5,23.7,00.0,33.4,26.4,04.7,0000.0,0000.43,0001.45,0000.31
2022-01-31 21:11:00,,0812.6,5.01,0.00,24.5,23.7,00.0,33.4,26.4,04.4,0000.0,0000.46,0001.99,0000.31
2022-01-31 21:12:00,,0812.6,5.01,0.00,24.5,23.7,00.0,33.5,26.3,04.6,0000.0,0000.48,0003.72,0000.32
2022-01-31 21:13:00,,0812.6,4.98,0.00,24.5,23.7,00.0,33.5,26.4,05.0,0000.0,0000.49,0003.80,0000.32
2022-01-31 21:14:00,,0812.6,5.01,0.00,24.5,23.7,00.0,33.5,26.4,05.4,0000.0,0000.49,0003.78,0000.32
2022-01-31 21:15:00,,0812.7,5.00,0.00,24.5,23.7,00.0,33.5,26.3,05.6,0000.0,0000.49,0003.78,0000.33
2022-01-31 21:16:00,,0812.6,4.98,0.00,24.5,23.7,00.0,33.5,26.4,05.1,0000.0,0000.52,0003.87,0000.33
2022-01-31 21:17:00,,0812.7,5.02,0.00,24.5,23.7,00.0,33.5,26.3,04.7,0000.0,0000.55,0004.04,0000.34
2022-01-31 21:18:00,,0812.7,4.98,0.00,24.5,23.7,00.0,33.5,26.4,04.7,0000.0,0000.56,0004.20,0000.35
2022-01-31 21:19:00,,0812.8,4.99,0.00,24.5,23.7,00.0,33.5,26.4,04.9,0000.0,0000.57,0004.67,0000.34
2022-01-31 21:20:00,,0812.8,5.01,0.00,24.5,23.7,00.0,33.5,26.4,04.9,0000.0,0000.58,0004.69,0000.34
2022-01-31 21:21:00,,0812.8,5.00,0.00,24.5,23.7,00.0,33.5,26.3,04.9,0000.0,0000.54,0004.21,0000.33
2022-01-31 21:22:00,,0812.9,4.99,0.00,24.5,23.8,00.0,33.5,26.3,04.7,0000.0,0000.52,0003.86,0000.34
2022-01-31 21:23:00,,0812.8,5.00,0.00,24.6,23.8,00.0,33.5,26.3,05.4,0000.0,0000.52,0002.19,0000.34
2022-01-31 21:24:00,,0812.9,5.00,0.00,24.6,23.8,00.0,33.5,26.4,05.6,0000.0,0000.51,0001.97,0000.34
2022-01-31 21:25:00,,0812.9,5.00,0.00,24.6,23.8,00.0,33.5,26.4,05.7,0000.0,0000.50,0001.95,0000.33
2022-01-31 21:26:00,,0812.9,5.01,0.00,24.6,23.8,00.0,33.5,26.4,05.8,0000.0,0000.49,0001.93,0000.33
2022-01-31 21:27:00,,0812.9,4.99,0.00,24.6,23.8,00.0,33.5,26.4,05.5,0000.0,0000.46,0003.20,0000.33
2022-01-31 21:28:00,,0812.8,5.00,0.00,24.6,23.8,00.0,33.5,26.5,05.6,0000.0,0000.44,0003.28,0000.32
2022-01-31 21:29:00,,0812.7,5.02,0.00,24.7,23.9,00.0,33.5,26.5,05.1,0000.0,0000.44,0003.22,0000.32
2022-01-31 21:30:00,,0812.8,5.01,0.00,24.7,23.9,00.0,33.6,26.5,05.6,0000.0,0000.43,0002.72,0000.32
2022-01-31 21:31:00,,0812.7,4.99,0.00,24.7,23.9,00.0,33.6,26.5,05.3,0000.0,0000.43,0002.66,0000.32
2022-01-31 21:32:00,,0812.7,5.01,0.00,24.7,24.0,00.0,33.6,26.5,06.0,0000.0,0000.45,0002.47,0000.33
2022-01-31 21:33:00,,0812.6,4.99,0.00,24.7,24.0,00.0,33.6,26.5,05.9,0000.0,0000.47,0002.61,0000.33
2022-01-31 21:34:00,,0812.6,5.01,0.00,24.7,24.0,00.0,33.6,26.5,05.6,0000.0,0000.48,0004.14,0000.33
2022-01-31 21:35:00,,0812.6,4.99,0.00,24.7,24.0,00.0,33.6,26.5,05.7,0000.0,0000.50,0004.17,0000.33
2022-01-31 21:36:00,,0812.5,4.99,0.00,24.7,24.0,00.0,33.6,26.5,05.5,0000.0,0000.50,0004.17,0000.34
2022-01-31 21:37:00,,0812.5,5.02,0.00,24.7,24.0,00.0,33.6,26.6,05.5,0000.0,0000.53,0004.27,0000.33
2022-01-31 21:38:00,,0812.5,4.99,0.00,24.7,24.0,00.0,33.6,26.6,05.4,0000.0,0000.57,0003.62,0000.33
2022-01-31 21:39:00,,0812.6,5.00,0.00,24.7,23.9,00.0,33.6,26.6,05.6,0000.0,0000.59,0003.63,0000.34
2022-01-31 21:40:00,,0812.6,4.99,0.00,24.7,23.9,00.0,33.6,26.6,05.1,0000.0,0000.62,0003.69,0000.34
2022-01-31 21:41:00,,0812.6,5.01,0.00,24.7,23.9,00.0,33.6,26.6,04.5,0000.0,0000.62,0003.64,0000.34
2022-01-31 21:42:00,,0812.6,4.99,0.00,24.7,23.9,00.0,33.7,26.6,05.2,0000.0,0000.62,0003.57,0000.35
2022-01-31 21:43:00,,0812.7,5.01,0.00,24.7,23.9,00.0,33.7,26.6,05.1,0000.0,0000.61,0004.29,0000.34
2022-01-31 21:44:00,,0812.7,5.00,0.00,24.7,23.9,00.0,33.7,26.6,05.4,0000.0,0000.62,0005.37,0000.34
2022-01-31 21:45:00,,0812.7,4.99,0.00,24.7,23.9,00.0,33.7,26.6,05.9,0000.0,0000.62,0004.14,0000.34
2022-01-31 21:46:00,,0812.5,5.02,0.00,24.7,23.9,00.0,33.7,26.6,05.6,0000.0,0000.63,0004.27,0000.33
2022-01-31 21:47:00,,0812.5,4.98,0.00,24.7,23.9,00.0,33.7,26.6,04.8,0000.0,0000.67,0004.69,0000.33
2022-01-31 21:48:00,,0812.8,5.01,0.00,24.7,23.9,00.0,33.7,26.6,04.6,0000.0,0000.67,0005.09,0000.33
2022-01-31 21:49:00,,0812.8,4.99,0.00,24.7,23.9,00.0,33.7,26.6,04.9,0000.0,0000.64,0004.46,0000.32
2022-01-31 21:50:00,,0812.9,5.00,0.00,24.7,23.9,00.0,33.7,26.6,05.1,0000.0,0000.61,0004.25,0000.32
2022-01-31 21:51:00,,0813.0,4.99,0.00,24.8,23.9,00.0,33.7,26.6,04.8,0000.0,0000.57,0004.17,0000.32
2022-01-31 21:52:00,,0812.9,5.02,0.00,24.8,23.9,00.0,33.7,26.6,04.7,0000.0,0000.58,0004.18,0000.32
2022-01-31 21:53:00,,0813.0,4.99,0.00,24.8,23.9,00.0,33.7,26.6,04.3,0000.0,0000.57,0004.22,0000.31
2022-01-31 21:54:00,,0813.1,4.99,0.00,24.8,23.9,00.0,33.7,26.6,05.0,0000.0,0000.55,0004.79,0000.31
2022-01-31 21:55:00,,0813.2,5.01,0.00,24.8,23.9,00.0,33.7,26.5,05.2,0000.0,0000.50,0003.27,0000.30
2022-01-31 21:56:00,,0813.2,5.00,0.00,24.8,23.9,00.0,33.7,26.6,05.0,0000.0,0000.50,0003.00,0000.30
2022-01-31 21:57:00,,0813.2,4.99,0.00,24.8,23.9,00.0,33.7,26.6,04.6,0000.0,0000.49,0002.98,0000.30
2022-01-31 21:58:00,,0813.2,5.01,0.00,24.8,23.9,00.0,33.7,26.6,04.5,0000.0,0000.47,0002.59,0000.31
2022-01-31 21:59:00,,0813.2,4.99,0.00,24.8,23.9,00.0,33.7,26.6,04.5,0000.0,0000.46,0002.29,0000.31
